Weather Roundup
Issued by NWS Chicago, IL

Home | Current Version | Previous Version | Graphics & Text | Print | Product List | Glossary On
Versions: 1 2 3 4 5 6 7 8 9 10 11 12 13 14 15 16 17 18 19 20 21 22 23 24 25 26 27 28 29 30 31 32 33 34 35 36 37 38 39 40 41 42 43 44 45 46 47 48 49 50
000
NZUS59 KLOT 240203
HRRLOT

CHICAGO AREA WEATHER ROUNDUP
NATIONAL WEATHER SERVICE CHICAGO/ROMEOVILLE IL
900 PM CDT MON MAY 23 2016

NOTE: "FAIR" INDICATES FEW OR NO CLOUDS BELOW 12,000 FEET WITH NO
SIGNIFICANT WEATHER AND/OR OBSTRUCTIONS TO VISIBILITY.

* THESE STATIONS ARE NOT UNDER NWS QUALITY CONTROL. THEY ALSO MAY NOT
  REPORT WEATHER SUCH AS PRECIPITATION OR FOG.

ILZ005-006-012>014-019>023-240300-
NORTHEAST ILLINOIS

CITY           SKY/WX    TMP DP  RH WIND       PRES   REMARKS
OHARE          MOCLDY    70  38  31 SE10      29.91S
MIDWAY         MOCLDY    72  39  30 E6        29.91F
AURORA         CLOUDY    70  46  42 SE6       29.90S
LANSING*       CLEAR     66  39  36 SE5       29.93S
WAUKEGAN       CLEAR     64  40  41 SE6       29.91S
DUPAGE AIRPORT PTCLDY    69  45  41 SE6       29.90S
WHEELING       CLEAR     69  37  30 SE6       29.92S
$$

WIZ051-052-058>065-066-070>072-240300-
SOUTHEAST WISCONSIN

CITY           SKY/WX    TMP DP  RH WIND       PRES   REMARKS
MILWAUKEE      MOCLDY    66  37  34 S7        29.91S
KENOSHA*       CLEAR     64  40  41 S5        29.91S
RACINE*        CLEAR     64  37  36 S8        29.93S
BURLINGTON     PTCLDY    67  40  37 CALM      29.91R
WAUKESHA       CLEAR     66  37  34 SE12      29.91S
$$

INZ001>003-010>013-019-020-240300-
NORTHWEST INDIANA

CITY           SKY/WX    TMP DP  RH WIND       PRES   REMARKS
GARY*          MOCLDY    61  55  82 SE6       29.93S
MICHIGAN CITY* NOT AVBL
RENSSELAER*    NOT AVBL
VALPARAISO     CLEAR     70  35  27 SE7       29.95F
$$

LMZ740>746-240300-
SOUTHERN LAKE MICHIGAN

STATION/POSITION TIME  SKY/WX   TEMP WIND        PRES    VSBY
                                AIR  DIR/SP/G
                 (UTC)          (F)  (DEG/KT/KT) (MB)    (MI)
HARRISON CRIB    0100            66  100/ 18/ 19   N/A
BURNHAM HARBOR   0200            60   CALM  /  2   N/A
CALUMET HARBOR   0100            64                N/A
BURNS HARBOR     0100            61   80/  5/ 13 1014.2S
MICHIGAN CITY    0100            64   50/  4/  4   N/A
$$

ABBREVIATIONS USED IN REMARKS
   TC - TEMPERATURE IN CELSIUS
  WCI - WIND CHILL INDEX
   HX - HEAT INDEX
  VSB - VISIBILITY
$$



USA.gov is the U.S. government's official web portal to all federal, state and local government web resources and services.